FENGYUN 1C DEB, 29948

Orbit data source: Space-Track

FENGYUN 1C DEB, 29948 is space debris in SSO originally from a launch on Mon, 10 May 1999 UTC launched from the Taiyaun Space Center, China (TSC). Fengyun 1C debris stems from the Chinese weather satellite Fengyun-1C, which was intentionally destroyed by a Chinese anti-satellite missile in 2007. This event dramatically increased the amount of space debris, with thousands of trackable fragments posing hazards to satellites and human spaceflight. The Fengyun 1C debris cloud has become a focal point in discussions about space sustainability and the need for international regulations to prevent the creation of new debris.

Loading next visibility...
Identifier
29948, 1999-025JW
Orbit
SSO
Country
Flag of CNCN / PRC
Related business
Manufacturer
Unknown
Mission
Spacecraft
Bus & Motor
Unknown
Mass
Unknown
Launch date (UTC)
1999-05-10 (27 years ago)
Launch vehicle
Unknown
Launch site
Taiyaun Space Center, China (TSC)
Object type
Payload
Rocket body
Debris
Shape & HBR
Unknown shape, 0.1 m
Radar Cross Section
Medium (>0.1 m² and <1 m²)

Expand to show TLE details & history
Last TLE update: 5 hours ago

TLE from 5 hours ago
0 FENGYUN 1C DEB
1 29948U 99025JW  26255.20649369  .00000048  00000-0  53685-4 0  9999
2 29948  98.8500 239.9259 0084229 185.9618 239.1025 14.06310085  8206
Epoch: 2026-09-12T04:57Z
TLE epoch observation values (Epoch: 2026-09-12T04:57:21.054Z)
Latitude
62.9527°
Longitude
156.70958°
Altitude
914.54 km
Speed
7.384 km/s
True Right ascension
14h 49m 03s
True Declination
62° 48' 58"
Sunlit
Object was in daylight at epoch
Visualization orbit readout
Latitude
Unknown
Longitude
Unknown
Altitude
Unknown
Speed
Unknown
Apparent Right ascension
Unknown
Apparent Declination
Unknown
Sunlit
N/A
Visualization observer readout
Local Sidereal Time
02:09:50
Azimuth
Unknown
Elevation
Unknown
Doppler factor
Unknown
Orbital elements
Apogee altitude
930.253 km
Perigee altitude
808.166 km
Semi-major axis
7,247.347 km
Eccentricity
0.00842
Inclination
98.85°
RAAN
239.9259°
Arg. of periapsis
185.9618°
True anomaly
238.27876°
Mean anomaly
239.1025°
Eccentric anomaly
238.69018°
Mean motion
3.51783 °/min
Orbital period
102.34 mins
BSTAR
0.000053685
Loading maneuver chart data...
Computing Atmospheric mass density...

Documentation

Showing up to 5 results
|